When you browse on this site, cookies collect data to enhance your experience and personalize the content and advertising you see.
Visit our Privacy Policy to learn more. By continuing to use the site, you agree to this use of cookies and data.
  • In Hungary
  • List of Countries
  • For 7 days
  • Water Temperature
  • Satellite Maps
  • Weather Map
  • News
  • Weather Widgets
  • user-avatar
    Login

    Hourly Weather American Fork

    Today, 17 June, Monday

    Time Temperature Precipitation Wind Pressure Humidity
    00:00 +18°C° 0 mm 1 mps 641 mmHg 59%
    01:00 +18°C° 0 mm 1 mps 641 mmHg 59%
    02:00 +16°C° 0 mm 1 mps 641 mmHg 59%
    03:00 +16°C° 0.1 mm 1 mps 641 mmHg 62%
    04:00 +15°C° 0.1 mm 1 mps 641 mmHg 65%
    05:00 +15°C° 0.1 mm 1 mps 641 mmHg 68%
    06:00 +18°C° 0 mm 1 mps 641 mmHg 64%
    07:00 +19°C° 0 mm 1 mps 642 mmHg 60%
    08:00 +21°C° 0 mm 1 mps 643 mmHg 56%
    09:00 +23°C° 0 mm 1 mps 643 mmHg 51%
    10:00 +25°C° 0 mm 1 mps 643 mmHg 45%
    11:00 +26°C° 0 mm 1 mps 644 mmHg 40%
    12:00 +26°C° 0.1 mm 1 mps 644 mmHg 40%
    13:00 +26°C° 0.1 mm 1 mps 643 mmHg 41%
    14:00 +27°C° 0.1 mm 2 mps 643 mmHg 41%
    15:00 +24°C° 1.4 mm 2 mps 642 mmHg 51%
    16:00 +21°C° 1.4 mm 2 mps 642 mmHg 60%
    17:00 +19°C° 1.4 mm 2 mps 641 mmHg 70%
    18:00 +18°C° 0.1 mm 2 mps 641 mmHg 70%
    19:00 +19°C° 0.1 mm 1 mps 641 mmHg 71%
    20:00 +18°C° 0.1 mm 1 mps 642 mmHg 72%
    21:00 +18°C° 0 mm 1 mps 642 mmHg 71%
    22:00 +16°C° 0 mm 1 mps 642 mmHg 70%
    23:00 +15°C° 0 mm 1 mps 642 mmHg 70%

    Tomorrow, 18 June, Tuesday

    Time Temperature Precipitation Wind Pressure Humidity
    00:00 +15°C° 0 mm 1 mps 642 mmHg 70%
    01:00 +15°C° 0 mm 1 mps 642 mmHg 71%
    02:00 +14°C° 0 mm 0 mps 642 mmHg 72%
    03:00 +15°C° 0.1 mm 1 mps 642 mmHg 73%
    04:00 +14°C° 0.1 mm 1 mps 642 mmHg 74%
    05:00 +14°C° 0.1 mm 1 mps 642 mmHg 75%
    06:00 +16°C° 0 mm 1 mps 643 mmHg 70%
    07:00 +19°C° 0 mm 1 mps 643 mmHg 66%
    08:00 +21°C° 0 mm 1 mps 644 mmHg 61%
    09:00 +22°C° 0.1 mm 1 mps 644 mmHg 55%
    10:00 +24°C° 0.1 mm 1 mps 645 mmHg 48%
    11:00 +25°C° 0.1 mm 1 mps 645 mmHg 42%
    12:00 +26°C° 0 mm 2 mps 645 mmHg 39%
    13:00 +27°C° 0 mm 2 mps 645 mmHg 36%
    14:00 +27°C° 0 mm 3 mps 644 mmHg 32%
    15:00 +27°C° 0 mm 3 mps 644 mmHg 32%
    16:00 +27°C° 0 mm 4 mps 644 mmHg 33%
    17:00 +27°C° 0 mm 4 mps 644 mmHg 33%
    18:00 +24°C° 0 mm 3 mps 643 mmHg 37%
    19:00 +21°C° 0 mm 2 mps 643 mmHg 41%
    20:00 +20°C° 0 mm 1 mps 642 mmHg 45%
    21:00 +20°C° 0 mm 1 mps 642 mmHg 46%
    22:00 +19°C° 0 mm 1 mps 642 mmHg 47%
    23:00 +18°C° 0 mm 1 mps 642 mmHg 48%

    Day after tomorrow, 19 June, Wednesday

    Time Temperature Precipitation Wind Pressure Humidity
    00:00 +18°C° 0 mm 1 mps 642 mmHg 49%
    01:00 +18°C° 0 mm 1 mps 642 mmHg 49%
    02:00 +16°C° 0 mm 1 mps 642 mmHg 50%
    03:00 +16°C° 0 mm 1 mps 642 mmHg 52%
    04:00 +16°C° 0 mm 1 mps 641 mmHg 53%
    05:00 +15°C° 0 mm 1 mps 641 mmHg 55%
    06:00 +18°C° 0 mm 1 mps 642 mmHg 50%
    07:00 +21°C° 0 mm 1 mps 643 mmHg 46%
    08:00 +23°C° 0 mm 1 mps 643 mmHg 41%
    09:00 +24°C° 0 mm 1 mps 643 mmHg 38%
    10:00 +26°C° 0 mm 2 mps 643 mmHg 34%
    11:00 +27°C° 0 mm 2 mps 644 mmHg 30%
    12:00 +28°C° 0 mm 3 mps 644 mmHg 29%
    13:00 +29°C° 0 mm 4 mps 643 mmHg 28%
    14:00 +30°C° 0 mm 5 mps 643 mmHg 26%
    15:00 +29°C° 0 mm 5 mps 643 mmHg 27%
    16:00 +29°C° 0 mm 5 mps 642 mmHg 27%
    17:00 +29°C° 0 mm 4 mps 642 mmHg 28%
    18:00 +27°C° 0 mm 4 mps 642 mmHg 32%
    19:00 +23°C° 0 mm 4 mps 641 mmHg 36%
    20:00 +21°C° 0 mm 3 mps 641 mmHg 41%
    21:00 +20°C° 0 mm 3 mps 641 mmHg 41%
    22:00 +19°C° 0 mm 2 mps 641 mmHg 41%
    23:00 +19°C° 0 mm 1 mps 640 mmHg 42%

    20 June, Thursday

    Time Temperature Precipitation Wind Pressure Humidity
    00:00 +18°C° 0 mm 1 mps 640 mmHg 44%
    01:00 +16°C° 0 mm 1 mps 640 mmHg 46%
    02:00 +16°C° 0 mm 1 mps 639 mmHg 48%
    03:00 +15°C° 0 mm 1 mps 639 mmHg 49%
    04:00 +15°C° 0 mm 1 mps 639 mmHg 50%
    05:00 +15°C° 0 mm 1 mps 638 mmHg 50%
    06:00 +18°C° 0 mm 1 mps 639 mmHg 47%
    07:00 +19°C° 0 mm 2 mps 639 mmHg 44%
    08:00 +21°C° 0 mm 2 mps 639 mmHg 41%
    09:00 +24°C° 0 mm 3 mps 639 mmHg 37%
    10:00 +26°C° 0 mm 3 mps 639 mmHg 33%
    11:00 +28°C° 0 mm 4 mps 640 mmHg 29%
    12:00 +28°C° 0 mm 5 mps 639 mmHg 30%
    13:00 +28°C° 0 mm 6 mps 639 mmHg 30%
    14:00 +28°C° 0 mm 7 mps 639 mmHg 31%
    15:00 +27°C° 0 mm 7 mps 638 mmHg 32%
    16:00 +26°C° 0 mm 6 mps 638 mmHg 32%
    17:00 +24°C° 0 mm 6 mps 638 mmHg 33%
    18:00 +21°C° 0 mm 5 mps 637 mmHg 38%
    19:00 +19°C° 0 mm 4 mps 637 mmHg 44%
    20:00 +17°C° 0 mm 3 mps 637 mmHg 49%
    21:00 +16°C° 0 mm 3 mps 637 mmHg 50%
    22:00 +15°C° 0 mm 2 mps 638 mmHg 51%
    23:00 +14°C° 0 mm 2 mps 638 mmHg 52%

    21 June, Friday

    Time Temperature Precipitation Wind Pressure Humidity
    00:00 +14°C° 0 mm 2 mps 638 mmHg 51%
    01:00 +14°C° 0 mm 2 mps 637 mmHg 49%
    02:00 +14°C° 0 mm 2 mps 637 mmHg 48%
    03:00 +14°C° 0 mm 2 mps 637 mmHg 49%
    04:00 +13°C° 0 mm 3 mps 637 mmHg 50%
    05:00 +12°C° 0 mm 3 mps 637 mmHg 51%
    06:00 +13°C° 0 mm 3 mps 637 mmHg 52%
    07:00 +14°C° 0 mm 3 mps 637 mmHg 53%
    08:00 +15°C° 0 mm 4 mps 638 mmHg 54%
    09:00 +15°C° 0 mm 4 mps 638 mmHg 53%
    10:00 +17°C° 0 mm 4 mps 639 mmHg 51%
    11:00 +18°C° 0 mm 4 mps 639 mmHg 50%
    12:00 +17°C° 0.1 mm 5 mps 639 mmHg 50%
    13:00 +16°C° 0.1 mm 5 mps 639 mmHg 51%
    14:00 +16°C° 0.1 mm 6 mps 639 mmHg 52%
    15:00 +16°C° 0 mm 5 mps 639 mmHg 50%
    16:00 +17°C° 0 mm 4 mps 640 mmHg 49%
    17:00 +15°C° 0 mm 4 mps 640 mmHg 47%
    18:00 +14°C° 0 mm 4 mps 640 mmHg 54%
    19:00 +12°C° 0 mm 4 mps 639 mmHg 61%
    20:00 +10°C° 0 mm 4 mps 639 mmHg 68%
    21:00 +9°C° 0 mm 3 mps 640 mmHg 72%
    22:00 +8°C° 0 mm 2 mps 640 mmHg 75%
    23:00 +9°C° 0 mm 1 mps 640 mmHg 79%

    22 June, Saturday

    Time Temperature Precipitation Wind Pressure Humidity
    00:00 +8°C° 0 mm 1 mps 640 mmHg 78%
    01:00 +8°C° 0 mm 1 mps 640 mmHg 78%
    02:00 +7°C° 0 mm 0 mps 640 mmHg 78%
    03:00 +7°C° 0 mm 0 mps 640 mmHg 77%
    04:00 +7°C° 0 mm 0 mps 640 mmHg 77%
    05:00 +6°C° 0 mm 0 mps 640 mmHg 76%
    06:00 +8°C° 0 mm 0 mps 641 mmHg 69%
    07:00 +12°C° 0 mm 1 mps 642 mmHg 62%
    08:00 +14°C° 0 mm 1 mps 642 mmHg 55%
    09:00 +15°C° 0 mm 1 mps 643 mmHg 51%
    10:00 +16°C° 0 mm 1 mps 643 mmHg 46%
    11:00 +19°C° 0 mm 1 mps 643 mmHg 42%
    12:00 +18°C° 0 mm 2 mps 643 mmHg 39%
    13:00 +19°C° 0 mm 2 mps 643 mmHg 36%
    14:00 +20°C° 0 mm 2 mps 643 mmHg 33%
    15:00 +20°C° 0 mm 2 mps 643 mmHg 33%
    16:00 +20°C° 0 mm 2 mps 643 mmHg 33%
    17:00 +20°C° 0 mm 2 mps 643 mmHg 34%
    18:00 +18°C° 0 mm 2 mps 643 mmHg 40%
    19:00 +16°C° 0 mm 2 mps 642 mmHg 45%
    20:00 +14°C° 0 mm 2 mps 642 mmHg 51%
    21:00 +13°C° 0 mm 1 mps 642 mmHg 51%
    22:00 +13°C° 0 mm 1 mps 642 mmHg 50%
    23:00 +12°C° 0 mm 1 mps 642 mmHg 49%
    Show more